• In Spain
  • List of Countries
  • For 7 days
  • Water Temperature
  • Satellite Maps
  • Weather Map
  • Weather Widgets
  • user-avatar
    Login

    Hourly Weather Benguela

    Today, 20 August, Sunday

    Time Temperature Precipitation Wind Pressure Humidity
    00:00 +25°C° 0 mm 2 mps 761 mmHg 76%
    01:00 +25°C° 0 mm 2 mps 761 mmHg 75%
    02:00 +25°C° 0 mm 2 mps 761 mmHg 74%
    03:00 +25°C° 0 mm 2 mps 760 mmHg 74%
    04:00 +25°C° 0 mm 2 mps 760 mmHg 73%
    05:00 +25°C° 0 mm 2 mps 761 mmHg 71%
    06:00 +25°C° 0 mm 2 mps 761 mmHg 70%
    07:00 +26°C° 0 mm 2 mps 761 mmHg 67%
    08:00 +29°C° 0 mm 2 mps 761 mmHg 58%
    09:00 +31°C° 0 mm 2 mps 761 mmHg 49%
    10:00 +35°C° 0 mm 2 mps 760 mmHg 40%
    11:00 +36°C° 0 mm 3 mps 760 mmHg 37%
    12:00 +37°C° 0 mm 4 mps 759 mmHg 34%
    13:00 +37°C° 0 mm 4 mps 759 mmHg 35%
    14:00 +36°C° 0 mm 4 mps 758 mmHg 37%
    15:00 +36°C° 0 mm 5 mps 758 mmHg 39%
    16:00 +35°C° 0 mm 5 mps 758 mmHg 41%
    17:00 +32°C° 0 mm 4 mps 758 mmHg 51%
    18:00 +29°C° 0 mm 3 mps 759 mmHg 60%
    19:00 +27°C° 0 mm 3 mps 759 mmHg 69%
    20:00 +26°C° 0 mm 2 mps 760 mmHg 73%
    21:00 +25°C° 0 mm 2 mps 760 mmHg 77%
    22:00 +24°C° 0 mm 2 mps 761 mmHg 81%
    23:00 +24°C° 0 mm 1 mps 761 mmHg 82%

    Tomorrow, 21 August, Monday

    Time Temperature Precipitation Wind Pressure Humidity
    00:00 +24°C° 0 mm 1 mps 760 mmHg 84%
    01:00 +23°C° 0 mm 1 mps 760 mmHg 85%
    02:00 +23°C° 0 mm 1 mps 760 mmHg 86%
    03:00 +23°C° 0 mm 1 mps 760 mmHg 87%
    04:00 +23°C° 0 mm 1 mps 760 mmHg 87%
    05:00 +23°C° 0 mm 1 mps 760 mmHg 88%
    06:00 +23°C° 0 mm 2 mps 760 mmHg 89%
    07:00 +23°C° 0 mm 2 mps 761 mmHg 90%
    08:00 +25°C° 0 mm 2 mps 761 mmHg 78%
    09:00 +28°C° 0 mm 2 mps 761 mmHg 66%
    10:00 +30°C° 0 mm 2 mps 761 mmHg 54%
    11:00 +32°C° 0 mm 2 mps 760 mmHg 48%
    12:00 +35°C° 0 mm 3 mps 759 mmHg 42%
    13:00 +36°C° 0 mm 3 mps 758 mmHg 36%
    14:00 +35°C° 0 mm 3 mps 758 mmHg 42%
    15:00 +33°C° 0 mm 3 mps 757 mmHg 48%
    16:00 +31°C° 0 mm 3 mps 757 mmHg 53%
    17:00 +29°C° 0 mm 3 mps 757 mmHg 61%
    18:00 +27°C° 0 mm 2 mps 758 mmHg 70%
    19:00 +25°C° 0 mm 2 mps 759 mmHg 78%
    20:00 +24°C° 0 mm 2 mps 759 mmHg 80%
    21:00 +24°C° 0 mm 1 mps 760 mmHg 82%
    22:00 +24°C° 0 mm 1 mps 760 mmHg 84%
    23:00 +23°C° 0 mm 1 mps 760 mmHg 84%

    Day after tomorrow, 22 August, Tuesday

    Time Temperature Precipitation Wind Pressure Humidity
    00:00 +21°C° 0 mm 0 mps 760 mmHg 84%
    01:00 +21°C° 0 mm 0 mps 759 mmHg 84%
    02:00 +21°C° 0 mm 0 mps 759 mmHg 83%
    03:00 +23°C° 0 mm 1 mps 759 mmHg 83%
    04:00 +23°C° 0 mm 1 mps 758 mmHg 83%
    05:00 +23°C° 0 mm 1 mps 759 mmHg 81%
    06:00 +24°C° 0 mm 1 mps 759 mmHg 80%
    07:00 +24°C° 0 mm 1 mps 759 mmHg 78%
    08:00 +27°C° 0 mm 2 mps 759 mmHg 66%
    09:00 +30°C° 0 mm 2 mps 759 mmHg 53%
    10:00 +34°C° 0 mm 3 mps 760 mmHg 40%
    11:00 +35°C° 0 mm 3 mps 759 mmHg 38%
    12:00 +36°C° 0 mm 4 mps 758 mmHg 36%
    13:00 +38°C° 0 mm 4 mps 757 mmHg 34%
    14:00 +36°C° 0 mm 4 mps 756 mmHg 40%
    15:00 +34°C° 0 mm 3 mps 756 mmHg 46%
    16:00 +33°C° 0 mm 3 mps 755 mmHg 52%
    17:00 +30°C° 0 mm 2 mps 756 mmHg 62%
    18:00 +28°C° 0 mm 2 mps 756 mmHg 71%
    19:00 +25°C° 0 mm 2 mps 757 mmHg 81%
    20:00 +25°C° 0 mm 1 mps 758 mmHg 83%
    21:00 +25°C° 0 mm 1 mps 758 mmHg 85%
    22:00 +24°C° 0 mm 1 mps 759 mmHg 87%
    23:00 +24°C° 0 mm 1 mps 758 mmHg 87%

    23 August, Wednesday

    Time Temperature Precipitation Wind Pressure Humidity
    00:00 +24°C° 0 mm 1 mps 758 mmHg 88%
    01:00 +23°C° 0 mm 1 mps 758 mmHg 88%
    02:00 +23°C° 0 mm 2 mps 758 mmHg 89%
    03:00 +23°C° 0 mm 2 mps 758 mmHg 90%
    04:00 +21°C° 0 mm 2 mps 758 mmHg 91%
    05:00 +21°C° 0 mm 2 mps 758 mmHg 91%
    06:00 +22°C° 0 mm 3 mps 759 mmHg 91%
    07:00 +22°C° 0 mm 3 mps 759 mmHg 90%
    08:00 +25°C° 0 mm 3 mps 759 mmHg 78%
    09:00 +27°C° 0 mm 3 mps 759 mmHg 66%
    10:00 +30°C° 0 mm 4 mps 759 mmHg 54%
    11:00 +32°C° 0 mm 4 mps 758 mmHg 52%
    12:00 +32°C° 0 mm 4 mps 758 mmHg 50%
    13:00 +33°C° 0 mm 4 mps 757 mmHg 48%
    14:00 +32°C° 0 mm 4 mps 757 mmHg 52%
    15:00 +30°C° 0 mm 4 mps 756 mmHg 55%
    16:00 +29°C° 0 mm 4 mps 756 mmHg 58%
    17:00 +28°C° 0 mm 3 mps 757 mmHg 66%
    18:00 +26°C° 0 mm 2 mps 758 mmHg 74%
    19:00 +24°C° 0 mm 2 mps 759 mmHg 82%
    20:00 +24°C° 0 mm 2 mps 759 mmHg 82%
    21:00 +24°C° 0 mm 1 mps 760 mmHg 82%
    22:00 +24°C° 0 mm 1 mps 760 mmHg 82%
    23:00 +24°C° 0 mm 1 mps 760 mmHg 84%

    24 August, Thursday

    Time Temperature Precipitation Wind Pressure Humidity
    00:00 +23°C° 0 mm 1 mps 760 mmHg 85%
    01:00 +23°C° 0 mm 1 mps 760 mmHg 87%
    02:00 +23°C° 0 mm 1 mps 759 mmHg 88%
    03:00 +23°C° 0 mm 1 mps 759 mmHg 89%
    04:00 +22°C° 0 mm 1 mps 759 mmHg 90%
    05:00 +22°C° 0 mm 1 mps 760 mmHg 89%
    06:00 +23°C° 0 mm 2 mps 760 mmHg 88%
    07:00 +23°C° 0 mm 2 mps 761 mmHg 87%
    08:00 +25°C° 0 mm 2 mps 761 mmHg 77%
    09:00 +27°C° 0 mm 3 mps 761 mmHg 67%
    10:00 +29°C° 0 mm 3 mps 761 mmHg 57%
    11:00 +30°C° 0 mm 4 mps 760 mmHg 53%
    12:00 +32°C° 0 mm 4 mps 759 mmHg 49%
    13:00 +33°C° 0 mm 5 mps 758 mmHg 46%
    14:00 +32°C° 0 mm 4 mps 758 mmHg 48%
    15:00 +32°C° 0 mm 4 mps 758 mmHg 50%
    16:00 +30°C° 0 mm 3 mps 758 mmHg 52%
    17:00 +28°C° 0 mm 3 mps 758 mmHg 60%
    18:00 +27°C° 0 mm 2 mps 759 mmHg 68%
    19:00 +25°C° 0 mm 1 mps 760 mmHg 75%
    20:00 +25°C° 0 mm 1 mps 760 mmHg 78%
    21:00 +24°C° 0 mm 1 mps 761 mmHg 82%
    22:00 +22°C° 0 mm 0 mps 761 mmHg 85%
    23:00 +21°C° 0 mm 0 mps 761 mmHg 86%

    25 August, Friday

    Time Temperature Precipitation Wind Pressure Humidity
    00:00 +21°C° 0 mm 0 mps 761 mmHg 88%
    01:00 +21°C° 0 mm 0 mps 761 mmHg 90%
    02:00 +20°C° 0 mm 0 mps 761 mmHg 91%
    03:00 +22°C° 0 mm 1 mps 761 mmHg 92%
    04:00 +22°C° 0 mm 1 mps 761 mmHg 93%
    05:00 +22°C° 0 mm 1 mps 761 mmHg 92%
    06:00 +21°C° 0 mm 2 mps 761 mmHg 90%
    07:00 +21°C° 0 mm 2 mps 761 mmHg 88%
    08:00 +25°C° 0 mm 2 mps 761 mmHg 74%
    09:00 +28°C° 0 mm 2 mps 761 mmHg 59%
    10:00 +31°C° 0 mm 1 mps 761 mmHg 45%
    11:00 +32°C° 0 mm 2 mps 760 mmHg 42%
    12:00 +34°C° 0 mm 3 mps 759 mmHg 40%
    13:00 +35°C° 0 mm 4 mps 758 mmHg 38%
    14:00 +34°C° 0 mm 4 mps 758 mmHg 43%
    15:00 +33°C° 0 mm 4 mps 757 mmHg 49%
    16:00 +30°C° 0 mm 4 mps 757 mmHg 55%
    17:00 +28°C° 0 mm 3 mps 758 mmHg 62%
    18:00 +27°C° 0 mm 3 mps 758 mmHg 70%
    19:00 +25°C° 0 mm 2 mps 759 mmHg 77%
    20:00 +25°C° 0 mm 2 mps 760 mmHg 79%
    21:00 +24°C° 0 mm 2 mps 760 mmHg 81%
    22:00 +24°C° 0 mm 2 mps 761 mmHg 83%
    23:00 +24°C° 0 mm 2 mps 760 mmHg 85%
    Show more